Location: Arcusa
(42.3167°N, 0.0833°W)
Time: 22:49:05
(UTC+00:00)

EXPRESS MD2 - Pass Details

Date: 25 January 2020
Orbit: 262 x 4042 km, 49.9° (Epoch: 17 February)

Event Time Altitude Azimuth Distance (km) Brightness Sun altitude
Exits shadow 06:33:37 10° 317° (NW) 1,339 4.8 -9.0°
Maximum altitude 06:35:29 17° 1° (N) 886 4.2 -8.6°
Drops below altitude 10° 06:37:06 10° 48° (NE) 1,096 5.3 -8.3°
Sets 06:39:09 0° 73° (ENE) 1,866 7.0 -8.0°
